This is the latest recevied weather packets stored in our database for station/object EW8324. If no packets are shown the sender has not sent any weather packets the latest 10 day(s).
| Time | Temp. | Humidity | Pressure | Rain* | Wind** | Luminosity | Snow |
|---|---|---|---|---|---|---|---|
| 1777819159 | 21.67° C | 64% | 1018.2 hPa | 0.25 mm | - | 540 W/m² | - |
| 1777818916 | 21.67° C | 68% | 1018.2 hPa | 0.25 mm | - | 528 W/m² | - |
| 1777818559 | 21.11° C | 66% | 1018.1 hPa | 0.25 mm | - | 513 W/m² | - |
| 1777818258 | 20.56° C | 77% | 1018.1 hPa | 0.25 mm | - | 496 W/m² | - |
| 1777817960 | 19.44° C | 80% | 1018.2 hPa | 0.25 mm | - | 473 W/m² | - |
| 1777817657 | 18.89° C | 69% | 1018.3 hPa | 0.25 mm | - | 454 W/m² | - |
| 1777817357 | 18.33° C | 60% | 1018.2 hPa | 0.25 mm | - | 418 W/m² | - |
| 1777817068 | 17.78° C | 61% | 1018.2 hPa | 0.25 mm | - | 399 W/m² | - |
| 1777816759 | 17.78° C | 61% | 1018.2 hPa | 0.25 mm | - | - | - |
| 1777816457 | 17.22° C | 62% | 1018.1 hPa | 0.25 mm | - | 346 W/m² | - |
| 1777816159 | 17.22° C | 63% | 1018.1 hPa | 0 mm | - | 325 W/m² | - |
| 1777815856 | 16.11° C | 64% | 1018 hPa | 0 mm | - | 302 W/m² | - |
| 1777815557 | 15.56° C | 65% | 1018 hPa | 0.25 mm | - | 264 W/m² | - |
| 1777815317 | 15.56° C | 65% | 1018 hPa | 0.25 mm | - | 248 W/m² | - |
| 1777814960 | 15° C | 66% | 1017.8 hPa | 0.25 mm | - | 206 W/m² | - |
| 1777814655 | 14.44° C | 67% | 1017.8 hPa | 0.25 mm | - | 74 W/m² | - |
| 1777814356 | 13.89° C | 68% | 1017.8 hPa | 0.25 mm | - | 67 W/m² | - |
| 1777814056 | 13.89° C | 70% | 1017.8 hPa | 0.25 mm | - | 37 W/m² | - |
| 1777813817 | 13.33° C | 71% | 1017.7 hPa | 0.25 mm | - | 35 W/m² | - |
| 1777813454 | 13.33° C | 71% | 1017.8 hPa | 0.25 mm | - | 35 W/m² | - |
| 1777813217 | 13.33° C | 73% | 1017.7 hPa | 0.25 mm | - | 33 W/m² | - |
| 1777812855 | 13.33° C | 73% | 1017.6 hPa | 0.25 mm | - | 32 W/m² | - |
| 1777812557 | 13.33° C | 74% | 1017.6 hPa | 0.25 mm | - | 30 W/m² | - |
| 1777812255 | 13.33° C | 74% | 1017.6 hPa | 0.25 mm | - | 30 W/m² | - |
| 1777811956 | 13.33° C | 74% | 1017.6 hPa | 0.25 mm | - | 26 W/m² | - |
* Rain latest hour (hover to see other rain measurements)
** Current wind speed in m/s (hover to see current wind gust speed)